• In Italy
  • List of Countries
  • For 7 days
  • Water Temperature
  • Satellite Maps
  • Weather Map
  • Weather Widgets
  • user-avatar
    Login

    Hourly Weather Ahmadabad

    Today, 21 January, Sunday

    Time Temperature Precipitation Wind Pressure Humidity
    00:00 +20°C° 0 mm 2 mps 755 mmHg 31%
    01:00 +20°C° 0 mm 2 mps 755 mmHg 32%
    02:00 +19°C° 0 mm 2 mps 755 mmHg 33%
    03:00 +19°C° 0 mm 2 mps 754 mmHg 34%
    04:00 +18°C° 0 mm 2 mps 754 mmHg 35%
    05:00 +18°C° 0 mm 2 mps 754 mmHg 36%
    06:00 +19°C° 0 mm 2 mps 754 mmHg 36%
    07:00 +19°C° 0 mm 2 mps 755 mmHg 37%
    08:00 +20°C° 0 mm 2 mps 755 mmHg 37%
    09:00 +24°C° 0 mm 2 mps 755 mmHg 33%
    10:00 +26°C° 0 mm 2 mps 755 mmHg 28%
    11:00 +30°C° 0 mm 1 mps 756 mmHg 23%
    12:00 +31°C° 0 mm 1 mps 755 mmHg 22%
    13:00 +32°C° 0 mm 1 mps 754 mmHg 21%
    14:00 +32°C° 0 mm 1 mps 753 mmHg 21%
    15:00 +32°C° 0 mm 1 mps 753 mmHg 22%
    16:00 +31°C° 0 mm 2 mps 753 mmHg 23%
    17:00 +30°C° 0 mm 2 mps 753 mmHg 28%
    18:00 +28°C° 0 mm 2 mps 753 mmHg 30%
    19:00 +27°C° 0 mm 3 mps 753 mmHg 31%
    20:00 +25°C° 0 mm 3 mps 754 mmHg 32%
    21:00 +24°C° 0 mm 3 mps 754 mmHg 32%
    22:00 +22°C° 0 mm 3 mps 754 mmHg 32%
    23:00 +22°C° 0 mm 3 mps 754 mmHg 31%

    Tomorrow, 22 January, Monday

    Time Temperature Precipitation Wind Pressure Humidity
    00:00 +21°C° 0 mm 3 mps 753 mmHg 32%
    01:00 +21°C° 0 mm 3 mps 753 mmHg 32%
    02:00 +20°C° 0 mm 2 mps 753 mmHg 32%
    03:00 +20°C° 0 mm 2 mps 753 mmHg 33%
    04:00 +20°C° 0 mm 2 mps 753 mmHg 34%
    05:00 +20°C° 0 mm 1 mps 753 mmHg 35%
    06:00 +20°C° 0 mm 2 mps 753 mmHg 35%
    07:00 +20°C° 0 mm 2 mps 753 mmHg 35%
    08:00 +21°C° 0 mm 2 mps 754 mmHg 35%
    09:00 +24°C° 0 mm 2 mps 754 mmHg 32%
    10:00 +26°C° 0 mm 1 mps 754 mmHg 28%
    11:00 +29°C° 0 mm 1 mps 754 mmHg 25%
    12:00 +30°C° 0 mm 2 mps 753 mmHg 24%
    13:00 +31°C° 0 mm 2 mps 753 mmHg 23%
    14:00 +32°C° 0 mm 2 mps 752 mmHg 22%
    15:00 +31°C° 0 mm 2 mps 752 mmHg 24%
    16:00 +31°C° 0 mm 3 mps 751 mmHg 25%
    17:00 +30°C° 0 mm 3 mps 751 mmHg 26%
    18:00 +28°C° 0 mm 3 mps 752 mmHg 31%
    19:00 +26°C° 0 mm 4 mps 752 mmHg 35%
    20:00 +23°C° 0 mm 4 mps 753 mmHg 39%
    21:00 +22°C° 0 mm 3 mps 753 mmHg 42%
    22:00 +21°C° 0 mm 3 mps 753 mmHg 46%
    23:00 +21°C° 0 mm 3 mps 753 mmHg 49%

    Day after tomorrow, 23 January, Tuesday

    Time Temperature Precipitation Wind Pressure Humidity
    00:00 +20°C° 0 mm 3 mps 753 mmHg 52%
    01:00 +20°C° 0 mm 2 mps 753 mmHg 54%
    02:00 +19°C° 0 mm 2 mps 753 mmHg 56%
    03:00 +19°C° 0 mm 2 mps 753 mmHg 60%
    04:00 +18°C° 0 mm 2 mps 752 mmHg 64%
    05:00 +18°C° 0 mm 2 mps 752 mmHg 68%
    06:00 +18°C° 0 mm 2 mps 753 mmHg 68%
    07:00 +20°C° 0 mm 1 mps 753 mmHg 68%
    08:00 +20°C° 0 mm 1 mps 754 mmHg 68%
    09:00 +21°C° 0 mm 2 mps 754 mmHg 56%
    10:00 +24°C° 0 mm 2 mps 754 mmHg 45%
    11:00 +26°C° 0 mm 3 mps 754 mmHg 33%
    12:00 +27°C° 0 mm 4 mps 754 mmHg 29%
    13:00 +28°C° 0 mm 4 mps 753 mmHg 25%
    14:00 +29°C° 0 mm 5 mps 752 mmHg 20%
    15:00 +29°C° 0 mm 4 mps 752 mmHg 22%
    16:00 +28°C° 0 mm 4 mps 752 mmHg 23%
    17:00 +28°C° 0 mm 4 mps 752 mmHg 24%
    18:00 +26°C° 0 mm 3 mps 752 mmHg 27%
    19:00 +24°C° 0 mm 3 mps 753 mmHg 30%
    20:00 +21°C° 0 mm 2 mps 754 mmHg 32%
    21:00 +21°C° 0 mm 2 mps 754 mmHg 34%
    22:00 +20°C° 0 mm 2 mps 754 mmHg 36%
    23:00 +19°C° 0 mm 2 mps 754 mmHg 38%

    24 January, Wednesday

    Time Temperature Precipitation Wind Pressure Humidity
    00:00 +19°C° 0 mm 2 mps 754 mmHg 40%
    01:00 +18°C° 0 mm 2 mps 754 mmHg 42%
    02:00 +18°C° 0 mm 2 mps 754 mmHg 45%
    03:00 +17°C° 0 mm 2 mps 754 mmHg 45%
    04:00 +17°C° 0 mm 3 mps 754 mmHg 46%
    05:00 +16°C° 0 mm 3 mps 754 mmHg 47%
    06:00 +17°C° 0 mm 3 mps 754 mmHg 43%
    07:00 +17°C° 0 mm 3 mps 755 mmHg 39%
    08:00 +17°C° 0 mm 3 mps 756 mmHg 35%
    09:00 +20°C° 0 mm 3 mps 756 mmHg 28%
    10:00 +24°C° 0 mm 3 mps 756 mmHg 21%
    11:00 +27°C° 0 mm 3 mps 756 mmHg 14%
    12:00 +28°C° 0 mm 3 mps 755 mmHg 12%
    13:00 +29°C° 0 mm 2 mps 754 mmHg 11%
    14:00 +30°C° 0 mm 2 mps 754 mmHg 9%
    15:00 +30°C° 0 mm 2 mps 753 mmHg 11%
    16:00 +29°C° 0 mm 2 mps 753 mmHg 12%
    17:00 +29°C° 0 mm 2 mps 753 mmHg 14%
    18:00 +27°C° 0 mm 2 mps 754 mmHg 15%
    19:00 +24°C° 0 mm 2 mps 754 mmHg 17%
    20:00 +21°C° 0 mm 2 mps 755 mmHg 18%
    21:00 +20°C° 0 mm 2 mps 755 mmHg 19%
    22:00 +19°C° 0 mm 2 mps 755 mmHg 21%
    23:00 +19°C° 0 mm 2 mps 755 mmHg 22%

    25 January, Thursday

    Time Temperature Precipitation Wind Pressure Humidity
    00:00 +18°C° 0 mm 2 mps 755 mmHg 22%
    01:00 +18°C° 0 mm 2 mps 754 mmHg 23%
    02:00 +17°C° 0 mm 2 mps 754 mmHg 24%
    03:00 +17°C° 0 mm 2 mps 754 mmHg 24%
    04:00 +16°C° 0 mm 2 mps 754 mmHg 25%
    05:00 +16°C° 0 mm 3 mps 754 mmHg 26%
    06:00 +16°C° 0 mm 3 mps 754 mmHg 28%
    07:00 +17°C° 0 mm 3 mps 755 mmHg 30%
    08:00 +17°C° 0 mm 3 mps 755 mmHg 31%
    09:00 +20°C° 0 mm 3 mps 756 mmHg 28%
    10:00 +24°C° 0 mm 3 mps 756 mmHg 25%
    11:00 +27°C° 0 mm 3 mps 756 mmHg 21%
    12:00 +29°C° 0 mm 2 mps 755 mmHg 19%
    13:00 +30°C° 0 mm 2 mps 754 mmHg 16%
    14:00 +31°C° 0 mm 1 mps 753 mmHg 14%
    15:00 +30°C° 0 mm 1 mps 753 mmHg 15%
    16:00 +30°C° 0 mm 1 mps 753 mmHg 16%
    17:00 +29°C° 0 mm 1 mps 753 mmHg 18%
    18:00 +27°C° 0 mm 2 mps 753 mmHg 19%
    19:00 +25°C° 0 mm 2 mps 754 mmHg 21%
    20:00 +23°C° 0 mm 2 mps 754 mmHg 22%
    21:00 +21°C° 0 mm 2 mps 754 mmHg 23%
    22:00 +20°C° 0 mm 2 mps 754 mmHg 25%
    23:00 +19°C° 0 mm 2 mps 754 mmHg 26%

    26 January, Friday

    Time Temperature Precipitation Wind Pressure Humidity
    00:00 +19°C° 0 mm 2 mps 754 mmHg 26%
    01:00 +18°C° 0 mm 2 mps 754 mmHg 27%
    02:00 +18°C° 0 mm 2 mps 753 mmHg 27%
    03:00 +18°C° 0 mm 2 mps 753 mmHg 27%
    04:00 +17°C° 0 mm 2 mps 753 mmHg 28%
    05:00 +17°C° 0 mm 3 mps 753 mmHg 28%
    06:00 +17°C° 0 mm 3 mps 754 mmHg 28%
    07:00 +18°C° 0 mm 3 mps 754 mmHg 29%
    08:00 +18°C° 0 mm 3 mps 755 mmHg 30%
    09:00 +21°C° 0 mm 3 mps 755 mmHg 26%
    10:00 +25°C° 0 mm 3 mps 755 mmHg 23%
    11:00 +28°C° 0 mm 3 mps 755 mmHg 19%
    12:00 +29°C° 0 mm 2 mps 755 mmHg 17%
    13:00 +30°C° 0 mm 2 mps 754 mmHg 15%
    14:00 +31°C° 0 mm 1 mps 753 mmHg 13%
    15:00 +31°C° 0 mm 1 mps 753 mmHg 14%
    16:00 +30°C° 0 mm 1 mps 753 mmHg 16%
    17:00 +30°C° 0 mm 1 mps 752 mmHg 17%
    18:00 +28°C° 0 mm 1 mps 753 mmHg 18%
    19:00 +26°C° 0 mm 2 mps 753 mmHg 20%
    20:00 +23°C° 0 mm 2 mps 754 mmHg 21%
    21:00 +23°C° 0 mm 2 mps 754 mmHg 22%
    22:00 +21°C° 0 mm 2 mps 754 mmHg 23%
    23:00 +20°C° 0 mm 2 mps 754 mmHg 24%
    Show more